Pineville, WV

10:15 AM EST on December 15, 2017 (GMT -0500)
Pineville

Weather History for KI16 - December, 2012

Change the Weather History Date:

Saturday, December 1, 2012

  Actual Average (KBKW) Record (KBKW)
Temperature  
Mean Temperature 48 °F -  
Max Temperature 64 °F 46 °F 75 °F (1909)
Min Temperature 32 °F 30 °F -7 °F (1896)
Degree Days  
Heating Degree Days 17    
Moisture  
Dew Point 39 °F    
Average Humidity 85    
Maximum Humidity 100    
Minimum Humidity 49    
Precipitation  
Precipitation 0.00 in - - ()
Sea Level Pressure  
Sea Level Pressure 30.36 in    
Wind  
Wind Speed - (North)    
Max Wind Speed -    
Max Gust Speed -    
Visibility 10 miles    
Events      
Averages and records for this station are not official NWS values.
T = Trace of Precipitation, MM = Missing Value Source: NWS Daily Summary

Daily Weather History Graph

Daily Weather History Graph

Search for Another Location

Airport or City:

Trip Planner

Search our weather history database for the weather conditions in past years. The results will help you decide how hot, cold, wet, or windy it might be!

Date:

Astronomy

Dec. 01, 2012 Rise Set
Actual Time 7:22 AM EST 5:07 PM EST
Civil Twilight 6:53 AM EST 5:36 PM EST
Nautical Twilight 6:21 AM EST 6:09 PM EST
Astronomical Twilight 5:49 AM EST 6:40 PM EST
Moon 7:55 PM EST (12/1) 9:35 AM EST (12/1)
Length of Visible Light 10h 42m
Length of Day
9h 45m
Waning Gibbous, 92% of the Moon is Illuminated
Dec 1
Waning Gibbous
Dec 6
Last Quarter
Dec 13
New
Dec 20
First Quarter
Dec 28
Full

Hourly Weather History & Observations

Time (EST) Temp. Dew Point Humidity Pressure Visibility Wind Dir Wind Speed Gust Speed Precip Events Conditions
12:15 AM 33.1 °F 32.5 °F 98% 30.34 in 10.0 mi North - - N/A   Clear
12:35 AM 32.9 °F 32.2 °F 97% 30.34 in 10.0 mi North - - N/A   Clear
12:55 AM 33.1 °F 32.9 °F 99% 30.34 in 10.0 mi North - - N/A   Clear
1:15 AM 33.1 °F 32.9 °F 99% 30.34 in 10.0 mi North - - N/A   Mostly Cloudy
1:35 AM 32.9 °F 32.5 °F 99% 30.34 in 10.0 mi North - - N/A   Mostly Cloudy
1:55 AM 33.8 °F 33.4 °F 99% 30.34 in 10.0 mi North - - N/A   Overcast
2:15 AM 34.5 °F 33.8 °F 97% 30.34 in 10.0 mi North - - N/A   Overcast
2:35 AM 34.9 °F 34.3 °F 98% 30.34 in 10.0 mi North - - N/A   Overcast
2:55 AM 34.9 °F 34.7 °F 99% 30.35 in 10.0 mi North - - N/A   Overcast
3:15 AM 34.9 °F 34.7 °F 99% 30.35 in 10.0 mi North - - N/A   Scattered Clouds
3:35 AM 34.3 °F 34.2 °F 99% 30.35 in 10.0 mi North - - N/A   Clear
3:55 AM 34.3 °F 34.2 °F 99% 30.36 in 10.0 mi North - - N/A   Scattered Clouds
4:15 AM 34.7 °F 34.7 °F 100% 30.36 in 10.0 mi North - - N/A   Mostly Cloudy
4:35 AM 35.6 °F 34.9 °F 97% 30.36 in 10.0 mi North - - N/A   Overcast
4:55 AM 35.8 °F 35.2 °F 98% 30.37 in 10.0 mi North - - N/A   Overcast
5:15 AM 36.1 °F 35.2 °F 97% 30.38 in 10.0 mi North - - N/A   Overcast
5:35 AM 36.1 °F 35.1 °F 96% 30.38 in 10.0 mi North - - N/A   Overcast
5:55 AM 34.9 °F 34.3 °F 98% 30.39 in 10.0 mi North - - N/A   Mostly Cloudy
6:15 AM 34.7 °F 34.2 °F 98% 30.39 in 10.0 mi North - - N/A   Overcast
6:35 AM 35.6 °F 34.7 °F 97% 30.39 in 10.0 mi North - - N/A   Overcast
6:55 AM 36.5 °F 35.2 °F 95% 30.39 in 10.0 mi North - - N/A   Overcast
7:15 AM 36.1 °F 35.1 °F 96% 30.39 in 10.0 mi North - - N/A   Overcast
7:35 AM 36.5 °F 35.1 °F 95% 30.40 in 10.0 mi North - - N/A   Overcast
7:55 AM 36.7 °F 35.2 °F 95% 30.40 in 10.0 mi North - - N/A   Overcast
8:15 AM 36.5 °F 35.2 °F 95% 30.41 in 10.0 mi North - - N/A   Mostly Cloudy
8:35 AM 37.9 °F 35.6 °F 91% 30.41 in 10.0 mi North - - N/A   Mostly Cloudy
8:55 AM 41.5 °F 37.4 °F 85% 30.41 in 10.0 mi North - - N/A   Overcast
9:15 AM 44.8 °F 38.7 °F 79% 30.41 in 10.0 mi North - - N/A   Overcast
9:35 AM 47.5 °F 39.7 °F 75% 30.41 in 10.0 mi North - - N/A   Mostly Cloudy
9:55 AM 51.6 °F 41.9 °F 69% 30.42 in 10.0 mi North - - N/A   Mostly Cloudy
10:15 AM 52.5 °F 43.5 °F 71% 30.41 in 10.0 mi North - - N/A   Scattered Clouds
10:35 AM 54.7 °F 43.7 °F 66% 30.41 in 10.0 mi North - - N/A   Clear
10:55 AM 58.3 °F 45.3 °F 62% 30.41 in 10.0 mi North - - N/A   Scattered Clouds
11:15 AM 59.2 °F 46.0 °F 62% 30.40 in 10.0 mi North - - N/A   Scattered Clouds
11:35 AM 59.9 °F 46.4 °F 61% 30.40 in 10.0 mi North - - N/A   Scattered Clouds
11:55 AM 59.7 °F 47.3 °F 63% 30.39 in 10.0 mi North - - N/A   Scattered Clouds
12:15 PM 59.0 °F 47.8 °F 66% 30.38 in 10.0 mi North - - N/A   Mostly Cloudy
12:35 PM 58.6 °F 47.8 °F 67% 30.36 in 10.0 mi North - - N/A   Scattered Clouds
12:55 PM 61.0 °F 47.8 °F 62% 30.35 in 10.0 mi North - - N/A   Clear
1:15 PM 61.7 °F 47.3 °F 59% 30.35 in 10.0 mi North - - N/A   Clear
1:35 PM 62.8 °F 46.9 °F 56% 30.34 in 10.0 mi North - - N/A   Clear
1:55 PM 63.1 °F 46.6 °F 55% 30.32 in 10.0 mi North - - N/A   Scattered Clouds
2:15 PM 64.4 °F 44.6 °F 49% 30.32 in 10.0 mi North - - N/A   Clear
2:35 PM 64.2 °F 46.9 °F 53% 30.32 in 10.0 mi North - - N/A   Clear
2:55 PM 64.6 °F 45.0 °F 49% 30.32 in 10.0 mi North - - N/A   Clear
3:15 PM 62.2 °F 45.5 °F 54% 30.31 in 10.0 mi North - - N/A   Clear
3:35 PM 59.7 °F 45.9 °F 60% 30.32 in 10.0 mi North - - N/A   Clear
3:55 PM 55.8 °F 46.0 °F 70% 30.32 in 10.0 mi North - - N/A   Clear
4:15 PM 55.9 °F 45.1 °F 67% 30.32 in 10.0 mi North - - N/A   Clear
4:35 PM 54.1 °F 45.0 °F 71% 30.32 in 10.0 mi North - - N/A   Clear
4:55 PM 51.1 °F 44.1 °F 77% 30.31 in 10.0 mi North - - N/A   Clear
5:15 PM 49.8 °F 43.5 °F 79% 30.32 in 10.0 mi North - - N/A   Clear
5:35 PM 47.7 °F 42.6 °F 83% 30.32 in 10.0 mi North - - N/A   Clear
5:55 PM 45.9 °F 42.1 °F 87% 30.32 in 10.0 mi North - - N/A   Clear
6:15 PM 44.8 °F 41.2 °F 87% 30.33 in 10.0 mi North - - N/A   Clear
6:35 PM 43.7 °F 41.0 °F 90% 30.33 in 10.0 mi North - - N/A   Clear
6:55 PM 42.8 °F 40.1 °F 90% 30.33 in 10.0 mi North - - N/A   Clear
7:15 PM 42.1 °F 39.9 °F 92% 30.34 in 10.0 mi North - - N/A   Clear
7:35 PM 41.4 °F 39.2 °F 92% 30.34 in 10.0 mi North - - N/A   Clear
7:55 PM 40.8 °F 38.8 °F 93% 30.34 in 10.0 mi North - - N/A   Clear
8:15 PM 40.8 °F 39.2 °F 94% 30.33 in 10.0 mi North - - N/A   Clear
8:35 PM 40.3 °F 38.8 °F 95% 30.33 in 10.0 mi North - - N/A   Clear
8:55 PM 40.1 °F 38.7 °F 95% 30.34 in 10.0 mi North - - N/A   Clear
9:15 PM 39.7 °F 38.8 °F 97% 30.34 in 10.0 mi North - - N/A   Clear
9:35 PM 39.6 °F 38.7 °F 97% 30.33 in 10.0 mi North - - N/A   Clear
9:55 PM 39.2 °F 38.3 °F 97% 30.33 in 10.0 mi North - - N/A   Clear
10:15 PM 39.0 °F 38.1 °F 97% 30.34 in 10.0 mi North - - N/A   Clear
10:35 PM 38.7 °F 38.3 °F 99% 30.34 in 10.0 mi North - - N/A   Clear
10:55 PM 38.3 °F 37.9 °F 99% 30.33 in 10.0 mi North - - N/A   Clear
11:15 PM 38.3 °F 37.8 °F 98% 30.34 in 10.0 mi North - - N/A   Clear
11:35 PM 38.1 °F 38.1 °F 100% 30.34 in 10.0 mi North - - N/A   Clear
11:55 PM 37.9 °F 37.8 °F 99% 30.34 in 10.0 mi North - - N/A   Clear